RYR33U LPPR-LEBL

Flight info

Callsign RYR33U
Flight time 1h 21m
Altitude 32000
Route BELDU DCT CANAR DCT ADORO DCT FITSE DCT DGO N725 LOBAR
Aircraft B738/M-SDE2E3FGHIRWXY/LB1

Departure

Time 2026-05-04 15:33
Airport Francisco de Sá Carneiro Airport (LPPR)

Arrival

Time 2026-05-04 16:55
Airport Josep Tarradellas Barcelona-El Prat Airport (LEBL)
Time Latitude Longitude Altitude Speed Heading
2026-05-04 15:11 41.23969 -8.67279 233 ft 0 kts 108°
2026-05-04 15:23 41.23969 -8.67280 233 ft 1 kts 108°
2026-05-04 15:24 41.23981 -8.67325 235 ft 3 kts 109°
2026-05-04 15:24 41.23994 -8.67374 233 ft 3 kts 115°
2026-05-04 15:25 41.24004 -8.67396 229 ft 3 kts 137°
2026-05-04 15:25 41.24020 -8.67411 228 ft 3 kts 162°
2026-05-04 15:25 41.24039 -8.67416 226 ft 3 kts 178°
2026-05-04 15:26 41.24049 -8.67416 226 ft 0 kts 180°
2026-05-04 15:27 41.24041 -8.67416 226 ft 5 kts 179°
2026-05-04 15:27 41.23892 -8.67489 227 ft 14 kts 181°
2026-05-04 15:28 41.23681 -8.67439 229 ft 14 kts 174°
2026-05-04 15:28 41.23627 -8.67507 229 ft 13 kts 259°
2026-05-04 15:28 41.23605 -8.67655 228 ft 0 kts 258°
2026-05-04 15:32 41.23605 -8.67812 228 ft 3 kts 348°
2026-05-04 15:32 41.24733 -8.68126 267 ft 164 kts 345°
2026-05-04 15:33 41.27280 -8.68707 2297 ft 193 kts 349°
2026-05-04 15:34 41.31293 -8.69052 6218 ft 140 kts 13°
2026-05-04 15:34 41.32095 -8.68321 6857 ft 164 kts 49°
2026-05-04 15:34 41.32442 -8.64117 6592 ft 253 kts 114°
2026-05-04 15:35 41.30904 -8.60400 8086 ft 251 kts 94°
2026-05-04 15:35 41.31172 -8.58046 8368 ft 266 kts 71°
2026-05-04 15:35 41.31763 -8.55616 8621 ft 287 kts 70°
2026-05-04 15:36 41.32893 -8.50304 10133 ft 302 kts 76°
2026-05-04 15:36 41.33342 -8.47528 10696 ft 317 kts 78°
2026-05-04 15:36 41.33746 -8.44542 10926 ft 342 kts 80°
2026-05-04 15:37 41.34118 -8.41288 11232 ft 363 kts 81°
2026-05-04 15:37 41.34451 -8.37928 11815 ft 373 kts 82°
2026-05-04 15:37 41.34754 -8.34517 12632 ft 375 kts 83°
2026-05-04 15:37 41.35042 -8.31003 13397 ft 381 kts 83°
2026-05-04 15:38 41.35317 -8.27460 14078 ft 387 kts 83°
2026-05-04 15:38 41.35584 -8.23914 14731 ft 391 kts 84°
2026-05-04 15:38 41.35852 -8.20279 15401 ft 396 kts 84°
2026-05-04 15:38 41.36118 -8.16627 16035 ft 402 kts 84°
2026-05-04 15:39 41.36389 -8.12888 16678 ft 407 kts 84°
2026-05-04 15:39 41.36660 -8.09135 17286 ft 412 kts 84°
2026-05-04 15:39 41.37213 -8.01421 18507 ft 423 kts 84°
2026-05-04 15:40 41.37493 -7.97496 19015 ft 428 kts 84°
2026-05-04 15:40 41.37770 -7.93588 19603 ft 430 kts 84°
2026-05-04 15:40 41.38052 -7.89600 20164 ft 435 kts 84°
2026-05-04 15:40 41.38335 -7.85560 20676 ft 439 kts 85°
2026-05-04 15:41 41.38620 -7.81484 21215 ft 443 kts 85°
2026-05-04 15:41 41.38907 -7.77363 21729 ft 448 kts 85°
2026-05-04 15:41 41.39193 -7.73247 22214 ft 452 kts 85°
2026-05-04 15:41 41.39485 -7.69055 22711 ft 456 kts 85°
2026-05-04 15:42 41.39779 -7.64814 23211 ft 460 kts 85°
2026-05-04 15:42 41.40071 -7.60544 23653 ft 465 kts 85°
2026-05-04 15:42 41.40364 -7.56223 24066 ft 468 kts 85°
2026-05-04 15:42 41.40653 -7.51938 24489 ft 471 kts 85°
2026-05-04 15:43 41.40944 -7.47581 24863 ft 474 kts 85°
2026-05-04 15:43 41.41237 -7.43185 25249 ft 477 kts 85°
2026-05-04 15:43 41.41529 -7.38760 25654 ft 480 kts 85°
2026-05-04 15:43 41.41822 -7.34302 26033 ft 483 kts 85°
2026-05-04 15:44 41.42115 -7.29822 26383 ft 486 kts 85°
2026-05-04 15:44 41.42404 -7.25381 26710 ft 490 kts 86°
2026-05-04 15:44 41.42697 -7.20840 27079 ft 492 kts 86°
2026-05-04 15:44 41.42991 -7.16267 27415 ft 495 kts 86°
2026-05-04 15:45 41.43284 -7.11673 27763 ft 498 kts 86°
2026-05-04 15:45 41.43577 -7.07061 28115 ft 500 kts 86°
2026-05-04 15:45 41.43869 -7.02431 28438 ft 503 kts 86°
2026-05-04 15:45 41.44160 -6.97767 28745 ft 506 kts 86°
2026-05-04 15:46 41.44452 -6.93080 29058 ft 508 kts 86°
2026-05-04 15:46 41.44740 -6.88421 29353 ft 511 kts 86°
2026-05-04 15:46 41.45030 -6.83690 29746 ft 511 kts 86°
2026-05-04 15:46 41.45318 -6.78961 29914 ft 513 kts 86°
2026-05-04 15:47 41.45606 -6.74210 29893 ft 514 kts 86°
2026-05-04 15:47 41.46171 -6.64794 29887 ft 507 kts 86°
2026-05-04 15:48 41.46722 -6.55457 29901 ft 508 kts 86°
2026-05-04 15:48 41.47543 -6.41317 29888 ft 509 kts 87°
2026-05-04 15:49 41.48090 -6.31894 29871 ft 505 kts 85°
2026-05-04 15:49 41.49681 -6.22909 29871 ft 499 kts 68°
2026-05-04 15:50 41.52357 -6.14319 29862 ft 501 kts 66°
2026-05-04 15:50 41.55051 -6.05702 29875 ft 503 kts 67°
2026-05-04 15:51 41.57689 -5.97031 29866 ft 503 kts 68°
2026-05-04 15:51 41.60282 -5.88387 29865 ft 503 kts 68°
2026-05-04 15:52 41.62885 -5.79686 29867 ft 502 kts 68°
2026-05-04 15:52 41.65460 -5.71062 29870 ft 501 kts 68°
2026-05-04 15:53 41.68042 -5.62388 29868 ft 500 kts 68°
2026-05-04 15:53 41.70597 -5.53779 29871 ft 499 kts 68°
2026-05-04 15:54 41.73150 -5.45147 29878 ft 498 kts 68°
2026-05-04 15:54 41.75694 -5.36513 29885 ft 497 kts 68°
2026-05-04 15:55 41.78212 -5.27939 29887 ft 497 kts 69°
2026-05-04 15:55 41.80739 -5.19306 29891 ft 496 kts 69°
2026-05-04 15:56 41.83246 -5.10710 29889 ft 496 kts 69°
2026-05-04 15:56 41.85753 -5.02088 29898 ft 496 kts 69°
2026-05-04 15:57 41.88261 -4.93434 29901 ft 496 kts 69°
2026-05-04 15:57 41.90741 -4.84846 29897 ft 496 kts 69°
2026-05-04 15:58 41.93225 -4.76215 29905 ft 495 kts 69°
2026-05-04 15:58 41.95707 -4.67564 29903 ft 495 kts 69°
2026-05-04 15:59 41.98167 -4.58959 29910 ft 495 kts 69°
2026-05-04 15:59 42.00626 -4.50327 29911 ft 495 kts 69°
2026-05-04 16:00 42.03076 -4.41697 29897 ft 495 kts 69°
2026-05-04 16:00 42.05533 -4.33020 29895 ft 494 kts 69°
2026-05-04 16:01 42.07564 -4.25822 29901 ft 494 kts 70°
2026-05-04 16:01 42.10397 -4.15739 29889 ft 495 kts 70°
2026-05-04 16:02 42.12419 -4.08518 29901 ft 494 kts 70°
2026-05-04 16:03 42.16047 -3.95516 29900 ft 493 kts 70°
2026-05-04 16:03 42.18441 -3.86899 29905 ft 491 kts 70°
2026-05-04 16:04 42.20839 -3.78237 29905 ft 490 kts 70°
2026-05-04 16:04 42.24401 -3.65317 29909 ft 489 kts 70°
2026-05-04 16:05 42.26757 -3.56731 29920 ft 489 kts 70°
2026-05-04 16:06 42.30289 -3.43809 29912 ft 489 kts 70°
2026-05-04 16:07 42.34971 -3.26569 29913 ft 488 kts 70°
2026-05-04 16:08 42.39609 -3.09370 29901 ft 487 kts 71°
2026-05-04 16:09 42.44440 -2.87543 29913 ft 481 kts 91°
2026-05-04 16:09 42.43539 -2.78697 29904 ft 475 kts 109°
2026-05-04 16:10 42.41693 -2.70103 29892 ft 474 kts 110°
2026-05-04 16:11 42.38067 -2.52973 29888 ft 473 kts 109°
2026-05-04 16:12 42.32737 -2.27359 29883 ft 472 kts 109°
2026-05-04 16:13 42.29139 -2.10262 29883 ft 472 kts 109°
2026-05-04 16:14 42.25524 -1.93240 29892 ft 472 kts 110°
2026-05-04 16:16 42.20957 -1.71974 29893 ft 472 kts 110°
2026-05-04 16:17 42.16350 -1.50718 29890 ft 472 kts 110°
2026-05-04 16:18 42.12645 -1.33772 29893 ft 469 kts 110°
2026-05-04 16:19 42.08014 -1.12823 29884 ft 467 kts 111°
2026-05-04 16:20 42.03339 -0.91972 29876 ft 465 kts 111°
2026-05-04 16:22 41.98657 -0.71193 29876 ft 464 kts 111°
2026-05-04 16:23 41.93017 -0.46314 29880 ft 464 kts 111°
2026-05-04 16:25 41.87311 -0.21453 29861 ft 467 kts 112°
2026-05-04 16:26 41.80477 0.07979 28887 ft 476 kts 112°
2026-05-04 16:27 41.78512 0.16381 28169 ft 469 kts 112°
2026-05-04 16:28 41.75518 0.28833 27826 ft 457 kts 113°
2026-05-04 16:28 41.73482 0.40995 26788 ft 445 kts 102°
2026-05-04 16:29 41.71755 0.57065 24934 ft 427 kts 103°
2026-05-04 16:30 41.70355 0.68647 23652 ft 418 kts 103°
2026-05-04 16:31 41.69402 0.76367 22686 ft 419 kts 103°
2026-05-04 16:31 41.68000 0.87711 21368 ft 407 kts 103°
2026-05-04 16:32 41.66615 0.98818 20126 ft 398 kts 103°
2026-05-04 16:33 41.65710 1.06033 19324 ft 393 kts 103°
2026-05-04 16:33 41.64805 1.13204 18535 ft 388 kts 103°
2026-05-04 16:34 41.63905 1.20291 17686 ft 383 kts 103°
2026-05-04 16:34 41.63464 1.23753 17262 ft 381 kts 103°
2026-05-04 16:35 41.62137 1.34128 16083 ft 372 kts 103°
2026-05-04 16:35 41.60851 1.44125 15810 ft 349 kts 103°
2026-05-04 16:36 41.60451 1.47230 15816 ft 335 kts 103°
2026-05-04 16:36 41.59688 1.53126 15815 ft 308 kts 104°
2026-05-04 16:37 41.58982 1.58551 15815 ft 283 kts 104°
2026-05-04 16:37 41.58647 1.61111 15684 ft 277 kts 104°
2026-05-04 16:37 41.57979 1.66158 15053 ft 279 kts 104°
2026-05-04 16:38 41.57126 1.71199 14644 ft 284 kts 110°
2026-05-04 16:39 41.55222 1.80123 13857 ft 357 kts 109°
2026-05-04 16:39 41.53909 1.86481 13187 ft 355 kts 108°
2026-05-04 16:40 41.52616 1.92784 12579 ft 351 kts 108°
2026-05-04 16:40 41.51332 1.99024 12101 ft 345 kts 108°
2026-05-04 16:41 41.50063 2.05169 11533 ft 343 kts 108°
2026-05-04 16:41 41.48171 2.14294 10650 ft 334 kts 108°
2026-05-04 16:42 41.46352 2.23036 9939 ft 315 kts 108°
2026-05-04 16:43 41.45224 2.28495 9495 ft 304 kts 104°
2026-05-04 16:43 41.45957 2.34056 8479 ft 311 kts 66°
2026-05-04 16:43 41.46872 2.36653 7976 ft 308 kts 65°
2026-05-04 16:44 41.50355 2.46672 6699 ft 277 kts 67°
2026-05-04 16:45 41.50797 2.51415 6615 ft 248 kts 117°
2026-05-04 16:46 41.47327 2.54680 6322 ft 193 kts 189°
2026-05-04 16:46 41.45434 2.52713 5911 ft 177 kts 237°
2026-05-04 16:47 41.44364 2.50370 5376 ft 178 kts 239°
2026-05-04 16:47 41.43280 2.47380 4813 ft 178 kts 242°
2026-05-04 16:48 41.41726 2.42893 4281 ft 181 kts 242°
2026-05-04 16:48 41.41199 2.41364 4096 ft 180 kts 242°
2026-05-04 16:49 41.40163 2.38354 3774 ft 178 kts 243°
2026-05-04 16:49 41.39132 2.35355 3450 ft 177 kts 242°
2026-05-04 16:50 41.38116 2.32401 3156 ft 177 kts 242°
2026-05-04 16:50 41.37054 2.29311 2988 ft 186 kts 242°
2026-05-04 16:51 41.35970 2.26149 2519 ft 186 kts 243°
2026-05-04 16:51 41.35451 2.24632 2299 ft 178 kts 243°
2026-05-04 16:51 41.34424 2.21638 1819 ft 181 kts 243°
2026-05-04 16:52 41.33408 2.18667 1329 ft 169 kts 243°
2026-05-04 16:52 41.32927 2.17259 1131 ft 167 kts 243°
2026-05-04 16:53 41.32013 2.14590 729 ft 149 kts 244°
2026-05-04 16:53 41.30833 2.11135 170 ft 126 kts 244°
2026-05-04 16:54 41.30490 2.10110 18 ft 119 kts 245°
2026-05-04 16:55 41.29970 2.08030 18 ft 6 kts 333°
2026-05-04 16:55 41.29980 2.08025 18 ft 2 kts 340°
2026-05-04 16:56 41.30069 2.07972 18 ft 12 kts 336°
2026-05-04 16:56 41.30225 2.07978 18 ft 0 kts 14°